Weather History for Yellowstone, WY

Change the Weather History Date:

Wednesday, January 30, 2013

  Actual Average Record
Temperature  
Mean Temperature 14 °F 13 °F  
Max Temperature 25 °F 25 °F 33 °F (2003)
Min Temperature 2 °F 1 °F -29 °F (2002)
Degree Days  
Heating Degree Days 51 52  
Month to date heating degree days 1710 1560  
Since 1 July heating degree days 6378 6470  
Cooling Degree Days 0 0  
Month to date cooling degree days 0 0  
Year to date cooling degree days 0 0  
Moisture  
Dew Point 12 °F    
Average Humidity 83    
Maximum Humidity 92    
Minimum Humidity 74    
Precipitation  
Precipitation 0.18 in 0.04 in 0.26 in (2006)
Month to date precipitation 1.38 2.07  
Year to date precipitation 1.38 2.07  
Sea Level Pressure  
Sea Level Pressure 30.10 in    
Wind  
Wind Speed 5 mph (West)    
Max Wind Speed 18 mph    
Max Gust Speed 26 mph    
T = Trace of Precipitation, MM = Missing Value Source: NWS Daily Summary

Daily Weather History Graph

Daily Weather History Graph

Search for Another Location

Airport:

Trip Planner

Search our weather history database for the weather conditions in past years. The results will help you decide how hot, cold, wet, or windy it might be!

Date:

Astronomy

Jan. 30, 2013 Rise Set
Actual Time 7:42 AM MST 5:28 PM MST
Civil Twilight 7:11 AM MST 5:59 PM MST
Nautical Twilight 6:36 AM MST 6:34 PM MST
Astronomical Twilight 6:01 AM MST 7:08 PM MST
Moon 9:43 PM MST 9:00 AM MST
Length of Visible Light 10h 48m
Length of Day
9h 46m
Waning Gibbous, 87% of the Moon is Illuminated
Jan 30
Waning Gibbous
Feb 3
Last Quarter
Feb 10
New
Feb 17
First Quarter
Feb 25
Full

Hourly Weather History & Observations

Time (MST) Temp. Windchill Dew Point Humidity Pressure Visibility Wind Dir Wind Speed Gust Speed Precip Events Conditions
12:56 AM 3.0 °F - -0.9 °F 84% 30.15 in - Calm Calm - N/A   Unknown
1:56 AM 3.9 °F - -0.0 °F 84% 30.13 in - Calm Calm - N/A   Unknown
2:56 AM 5.0 °F - 1.0 °F 84% 30.12 in - Calm Calm - N/A   Unknown
3:56 AM 6.1 °F - 3.0 °F 87% 30.11 in - Calm Calm - 0.01 in   Unknown
4:56 AM 7.0 °F - 3.0 °F 84% 30.12 in - Calm Calm - 0.01 in   Unknown
5:56 AM 9.0 °F 2.4 °F 5.0 °F 84% 30.15 in - NE 3.5 mph - N/A   Unknown
6:56 AM 9.0 °F - 6.1 °F 88% 30.18 in - Calm Calm - N/A   Unknown
7:56 AM 10.0 °F - 7.0 °F 87% 30.17 in - Calm Calm - 0.01 in   Unknown
8:56 AM 12.9 °F - 10.0 °F 88% 30.15 in - Calm Calm - 0.02 in   Unknown
9:56 AM 17.1 °F 8.7 °F 12.9 °F 84% 30.13 in - Variable 5.8 mph - 0.01 in   Unknown
10:56 AM 21.9 °F 11.7 °F 16.0 °F 78% 30.09 in - West 9.2 mph 17.3 mph 0.02 in   Unknown
11:56 AM 21.9 °F 11.0 °F 16.0 °F 78% 30.08 in - West 10.4 mph 21.9 mph N/A   Unknown
12:56 PM 25.0 °F 14.2 °F 18.0 °F 75% 30.05 in - West 11.5 mph 19.6 mph 0.01 in   Unknown
1:56 PM 24.1 °F 16.0 °F 17.1 °F 75% 30.05 in - Variable 6.9 mph 20.7 mph 0.01 in   Unknown
2:56 PM 24.1 °F 13.1 °F 17.1 °F 75% 30.06 in - West 11.5 mph 20.7 mph N/A   Unknown
3:56 PM 23.0 °F 14.7 °F 17.1 °F 78% 30.08 in - Variable 6.9 mph - 0.01 in   Unknown
4:56 PM 21.9 °F 12.5 °F 16.0 °F 78% 30.09 in - West 8.1 mph - N/A   Unknown
5:56 PM 21.0 °F 11.4 °F 16.0 °F 81% 30.09 in - West 8.1 mph 16.1 mph N/A   Unknown
6:56 PM 21.0 °F - 17.1 °F 85% 30.09 in - Calm Calm - 0.01 in   Unknown
7:56 PM 21.0 °F 12.4 °F 17.1 °F 85% 30.08 in - Variable 6.9 mph - 0.03 in   Unknown
8:56 PM 21.0 °F 11.4 °F 17.1 °F 85% 30.08 in - West 8.1 mph - 0.01 in   Unknown
9:56 PM 21.9 °F 12.5 °F 17.1 °F 82% 30.06 in - West 8.1 mph - 0.01 in   Unknown
10:56 PM 21.0 °F 12.4 °F 17.1 °F 85% 30.06 in - West 6.9 mph - 0.01 in   Unknown
11:56 PM 21.0 °F 10.6 °F 17.1 °F 85% 30.08 in - West 9.2 mph 17.3 mph N/A   Unknown